[[{"header":{"parameterUnit":"m.s-1","parameterCategory":1,"la1":30.2991,"la2":30.254,"lo1":-89.0895,"lo2":-89.0444,"dy":0.0017,"dx":0.0017,"nx":28,"ny":28,"refTime":"2026-01-11T03:00:00:Z","depth":0,"parameterNumber":2,"parameterNumberName":"U-component_of_WINDS"},"data":[0,0,0,0,0,0,0,0,0,0,0,0,0,0,0,0,0,0,0,0,0,0,0,0,0,0,0,0,0,0,0,0,0,0,0,0,0,0,0,0,0,0,0,0,0,0,0,0,0,0,0,0,0,0,0,0,0,0,-1.3224,-1.3225,0,-1.3237,-1.3237,-1.3237,-1.3179,-1.3177,-1.3175,-1.3174,-1.3189,-1.3191,-1.3193,0,0,0,0,0,0,0,0,0,0,0,0,0,-1.3153,-1.3155,-1.3224,-1.3225,-1.3225,-1.3237,-1.3237,-1.3237,-1.3179,-1.3177,-1.3175,-1.3173,-1.3188,-1.3191,-1.3193,0,0,0,0,0,0,0,0,0,0,0,0,0,-1.3177,-1.3155,-1.3224,-1.3197,-1.3195,-1.3237,-1.3237,-1.3237,-1.3179,-1.3177,-1.3174,-1.3172,-1.3188,-1.319,-1.3193,-1.3263,0,0,-1.3203,-1.3204,0,0,0,0,0,0,0,0,-1.3176,-1.3179,-1.3201,-1.3199,-1.3197,-1.3203,-1.3217,-1.3246,-1.318,-1.3185,-1.3174,-1.3171,-1.3196,-1.3198,-1.3206,-1.3264,-1.3264,-1.3203,-1.3205,-1.3206,-1.3207,0,0,0,0,0,0,0,-1.3174,-1.3179,-1.3229,-1.3201,-1.3199,-1.3185,-1.3186,-1.3222,-1.3205,-1.3185,-1.318,-1.3183,-1.3194,-1.3203,-1.3206,-1.3265,-1.3203,-1.3205,-1.3207,-1.3208,-1.3381,-1.3383,0,0,0,0,0,0,-1.3176,-1.3178,-1.3229,-1.323,-1.3179,-1.3188,-1.3189,-1.3204,-1.3204,-1.3202,-1.3185,-1.318,-1.32,-1.3203,-1.3206,-1.3289,-1.3206,-1.3209,-1.321,-1.3378,-1.3381,-1.3384,0,0,0,0,0,0,-1.3174,-1.3181,-1.3228,-1.3203,-1.3208,-1.3192,-1.321,-1.3205,-1.3214,-1.3204,-1.3201,-1.3197,-1.3198,-1.3202,-1.3249,-1.3289,-1.321,-1.3213,-1.3375,-1.3379,-1.3383,-1.3454,0,0,0,0,0,0,-1.3173,-1.3181,-1.3206,-1.3204,-1.3209,-1.3271,-1.3212,-1.3208,-1.3219,-1.3213,-1.3215,-1.3213,-1.3196,-1.3245,-1.3252,-1.3291,-1.3215,-1.3371,-1.3377,-1.3381,-1.3448,-1.346,-1.3471,0,0,0,0,0,-1.317,-1.3226,-1.3208,-1.3215,-1.3241,-1.3273,-1.3276,-1.3255,-1.3223,-1.3249,-1.3243,-1.3213,-1.3283,-1.3251,-1.3258,-1.3299,-1.3369,-1.3375,-1.3381,-1.3443,-1.3458,-1.347,0,0,0,0,0,0,-1.3235,-1.3226,-1.3205,-1.3262,-1.3269,-1.3263,-1.3296,-1.3271,-1.3288,-1.3281,-1.3254,-1.3255,-1.3308,-1.3307,-1.3272,-1.3366,-1.332,-1.3328,-1.3365,-1.3379,-1.339,-1.339,-1.3218,0,0,0,0,0,-1.3256,-1.3282,-1.3272,-1.3324,-1.3328,-1.3311,-1.3325,-1.3307,-1.3314,-1.3317,-1.3313,-1.3322,-1.3345,-1.3362,-1.3383,-1.3447,-1.3448,-1.3479,-1.349,-1.3499,-1.3507,-1.3543,-1.3557,-1.3405,-1.3405,-1.3405,0,0,-1.33,-1.3298,-1.3316,-1.3337,-1.334,-1.3369,-1.3314,-1.3347,-1.3368,-1.3322,-1.3366,-1.3364,-1.3371,-1.3428,-1.3453,-1.3429,-1.3549,-1.3507,-1.3514,-1.3518,-1.3551,-1.3565,-1.3578,-1.3409,-1.3408,-1.3408,0,0,-1.3395,-1.3395,-1.3438,-1.3442,-1.3447,-1.3436,-1.3446,-1.3444,-1.3441,-1.3485,-1.3451,-1.3476,-1.3517,-1.3524,-1.3533,-1.363,-1.3604,-1.3637,-1.3697,-1.3731,-1.3743,-1.3754,-1.379,-1.3804,-1.3645,-1.3645,-1.3645,0,-1.3449,-1.349,-1.3464,-1.3499,-1.3509,-1.3467,-1.3511,-1.3517,-1.3529,-1.3538,-1.3511,-1.3562,-1.3564,-1.3622,-1.3646,-1.3654,-1.3666,-1.3638,-1.3744,-1.3754,-1.3763,-1.3798,-1.3811,-1.3649,-1.3649,-1.3648,-1.3648,0,-1.3557,-1.3586,-1.362,-1.3633,-1.3647,-1.3686,-1.3667,-1.3685,-1.3666,-1.3657,-1.3703,-1.3703,-1.3725,-1.3737,-1.3719,-1.3793,-1.3778,-1.3748,-1.3701,-1.3783,-1.3815,-1.3827,-1.3655,-1.3654,-1.3652,-1.3651,0,0,-1.3695,-1.3692,-1.3705,-1.3711,-1.3713,-1.3735,-1.3773,-1.3792,-1.3809,-1.3818,-1.3851,-1.3886,-1.3858,-1.3868,-1.385,-1.3881,-1.396,-1.3847,-1.3846,-1.387,-1.4043,-1.4068,-1.4083,-1.3941,-1.3944,-1.3945,-1.4043,0,-1.379,-1.3854,-1.3831,-1.3897,-1.3924,-1.3884,-1.3917,-1.3922,-1.3915,-1.3938,-1.393,-1.3956,-1.3916,-1.3922,-1.395,-1.3944,-1.3994,-1.3936,-1.3973,-1.3975,-1.3975,-1.41,-1.4126,-1.4218,-1.4055,-1.4057,-1.4059,0,-1.3909,-1.3923,-1.3991,-1.3989,-1.4,-1.403,-1.4046,-1.4068,-1.4073,-1.4066,-1.4077,-1.4053,-1.4091,-1.4043,-1.4095,-1.4056,-1.407,-1.4069,-1.4072,-1.4077,-1.4024,-1.411,-1.4247,-1.4262,-1.4078,-1.4076,-1.4075,0,-1.4006,-1.4041,-1.4087,-1.4092,-1.4091,-1.4113,-1.4113,-1.4116,-1.413,-1.4144,-1.4153,-1.4171,-1.4183,-1.4198,-1.418,-1.4146,-1.4236,-1.4186,-1.4233,-1.4234,-1.4256,-1.4256,-1.44,-1.4261,-1.426,-1.426,-1.426,0,-1.4115,-1.4159,-1.413,-1.4159,-1.4207,-1.418,-1.4229,-1.4225,-1.4228,-1.4256,-1.4221,-1.4248,-1.4222,-1.4247,-1.4232,-1.428,-1.4284,-1.4281,-1.4277,-1.4285,-1.4286,-1.4295,-1.429,-1.4264,-1.4263,-1.4262,-1.4262,0,-1.4232,-1.4214,-1.4262,-1.4256,-1.4255,-1.4292,-1.4287,-1.4314,-1.4303,-1.4339,-1.4346,-1.433,-1.4358,-1.434,-1.4368,-1.4359,-1.4421,-1.4407,-1.4419,-1.4416,-1.4465,-1.4462,-1.4623,-1.4643,-1.4489,-1.449,-1.4492,0,-1.4304,-1.4337,-1.4334,-1.435,-1.4353,-1.4378,-1.4392,-1.4366,-1.4382,-1.439,-1.4417,-1.4441,-1.4459,-1.4505,-1.4497,-1.4518,-1.4506,-1.4561,-1.4509,-1.4517,-1.451,-1.4509,-1.4513,-1.4572,-1.4574,-1.4576,-1.4577,0,-1.4435,-1.4425,-1.4445,-1.4462,-1.4479,-1.4491,-1.4501,-1.4516,-1.449,-1.451,-1.4537,-1.4551,-1.4579,-1.4604,-1.4622,-1.4623,-1.4597,-1.4592,-1.4605,-1.4615,-1.4622,-1.4621,-1.445,-1.459,-1.4588,-1.4587,-1.4587,-1.4586,-1.4534,-1.4561,-1.4564,-1.4588,-1.4592,-1.4602,-1.4627,-1.4619,-1.4641,-1.4662,-1.4645,-1.4678,-1.4683,-1.4704,-1.4709,-1.4735,-1.4713,-1.4731,-1.4736,-1.4741,-1.4749,-1.4615,-1.4738,-1.4738,-1.4737,-1.4737,-1.4737,0,-1.4665,-1.4664,-1.4686,-1.47,-1.4719,-1.469,-1.4699,-1.4718,-1.4747,-1.4753,-1.4772,-1.4803,-1.4828,-1.4821,-1.4843,-1.4865,-1.4854,-1.4872,-1.4872,-1.4873,-1.4766,-1.4754,-1.4881,-1.4881,-1.4881,-1.4881,-1.4881,-1.4881,-1.4735,-1.4781,-1.4771,-1.4819,-1.4818,-1.4849,-1.4857,-1.4867,-1.4872,-1.4909,-1.4928,-1.4923,-1.4925,-1.4946,-1.4967,-1.4965,-1.4976,-1.4999,-1.4993,-1.4894,-1.488,-1.4866,-1.4855,-1.5001,-1.5001,-1.5097,-1.5098,-1.5099]},{"header":{"parameterUnit":"m.s-1","parameterCategory":1,"la1":30.2991,"la2":30.254,"lo1":-89.0895,"lo2":-89.0444,"dy":0.0017,"dx":0.0017,"nx":28,"ny":28,"refTime":"2026-01-11T03:00:00:Z","depth":0,"parameterNumber":3,"parameterNumberName":"V-component_of_WINDS"},"data":[0,0,0,0,0,0,0,0,0,0,0,0,0,0,0,0,0,0,0,0,0,0,0,0,0,0,0,0,0,0,0,0,0,0,0,0,0,0,0,0,0,0,0,0,0,0,0,0,0,0,0,0,0,0,0,0,0,0,-2.8072,-2.8072,0,-2.8109,-2.8109,-2.8109,-2.809,-2.8089,-2.8089,-2.8088,-2.8122,-2.8124,-2.8126,0,0,0,0,0,0,0,0,0,0,0,0,0,-2.7982,-2.7984,-2.8072,-2.8072,-2.8073,-2.8108,-2.8109,-2.8109,-2.8091,-2.8089,-2.8088,-2.8087,-2.8122,-2.8124,-2.8126,0,0,0,0,0,0,0,0,0,0,0,0,0,-2.802,-2.7985,-2.8072,-2.8068,-2.8068,-2.8108,-2.8109,-2.811,-2.8091,-2.8089,-2.8088,-2.8087,-2.8121,-2.8124,-2.8126,-2.8172,0,0,-2.8135,-2.8136,0,0,0,0,0,0,0,0,-2.8018,-2.8024,-2.8068,-2.8068,-2.8068,-2.8093,-2.809,-2.813,-2.8091,-2.8082,-2.8088,-2.8086,-2.8114,-2.8117,-2.8127,-2.8174,-2.8175,-2.8135,-2.8137,-2.8138,-2.8138,0,0,0,0,0,0,0,-2.8016,-2.8022,-2.8086,-2.8068,-2.8069,-2.8063,-2.8067,-2.8098,-2.8105,-2.8083,-2.8081,-2.8086,-2.8113,-2.8124,-2.8128,-2.8176,-2.8135,-2.8137,-2.8139,-2.814,-2.8263,-2.8264,0,0,0,0,0,0,-2.8014,-2.802,-2.8085,-2.8087,-2.8039,-2.8066,-2.807,-2.8087,-2.8105,-2.8106,-2.8087,-2.8085,-2.812,-2.8124,-2.8129,-2.8185,-2.8138,-2.814,-2.8142,-2.8261,-2.8263,-2.8265,0,0,0,0,0,0,-2.8012,-2.802,-2.8083,-2.8053,-2.8061,-2.8069,-2.8088,-2.8088,-2.8099,-2.8109,-2.811,-2.8097,-2.8119,-2.8125,-2.8162,-2.8186,-2.8141,-2.8144,-2.8259,-2.8262,-2.8264,-2.8296,0,0,0,0,0,0,-2.8009,-2.8019,-2.8037,-2.8054,-2.8063,-2.8117,-2.8089,-2.809,-2.8104,-2.8102,-2.8118,-2.8119,-2.8119,-2.8158,-2.8165,-2.8189,-2.8146,-2.8257,-2.826,-2.8263,-2.8293,-2.83,-2.8305,0,0,0,0,0,-2.8006,-2.8044,-2.8038,-2.8046,-2.8086,-2.8118,-2.8123,-2.8123,-2.8106,-2.8124,-2.813,-2.8119,-2.8182,-2.8162,-2.8169,-2.8194,-2.8256,-2.826,-2.8263,-2.8291,-2.8298,-2.8305,0,0,0,0,0,0,-2.8028,-2.8046,-2.804,-2.8084,-2.81,-2.8115,-2.8138,-2.8131,-2.8151,-2.8147,-2.8144,-2.8148,-2.8187,-2.8194,-2.8172,-2.824,-2.8216,-2.8221,-2.8234,-2.8242,-2.8248,-2.8246,-2.8148,0,0,0,0,0,-2.8039,-2.8065,-2.8078,-2.8116,-2.8124,-2.813,-2.8144,-2.8142,-2.8158,-2.8164,-2.8173,-2.8188,-2.8211,-2.8227,-2.8248,-2.8294,-2.8297,-2.8314,-2.832,-2.8325,-2.833,-2.8356,-2.8364,-2.8277,-2.8277,-2.8277,0,0,-2.806,-2.8072,-2.8089,-2.8121,-2.8133,-2.816,-2.8136,-2.8164,-2.8184,-2.8168,-2.8205,-2.8212,-2.8228,-2.827,-2.8289,-2.8277,-2.8355,-2.833,-2.8334,-2.8336,-2.836,-2.8369,-2.8376,-2.8279,-2.8279,-2.8279,0,0,-2.8112,-2.8124,-2.8158,-2.8171,-2.819,-2.8194,-2.8202,-2.8218,-2.8222,-2.8259,-2.8248,-2.8271,-2.831,-2.8323,-2.8335,-2.8393,-2.8383,-2.84,-2.8431,-2.8456,-2.8463,-2.8469,-2.8491,-2.8498,-2.8404,-2.8404,-2.8404,0,-2.8136,-2.8177,-2.8176,-2.8206,-2.8221,-2.8209,-2.8243,-2.8255,-2.8279,-2.8289,-2.8276,-2.8327,-2.8336,-2.8382,-2.8396,-2.8405,-2.8415,-2.8398,-2.8462,-2.8468,-2.8474,-2.8494,-2.8503,-2.8406,-2.8406,-2.8406,-2.8406,0,-2.8205,-2.8234,-2.8258,-2.8285,-2.8301,-2.8333,-2.8337,-2.8354,-2.835,-2.8355,-2.8392,-2.8404,-2.8429,-2.8439,-2.8435,-2.8484,-2.8476,-2.8462,-2.8438,-2.8484,-2.8504,-2.8511,-2.8409,-2.8408,-2.8408,-2.8407,0,0,-2.8273,-2.8299,-2.8309,-2.8321,-2.8341,-2.8363,-2.8394,-2.8419,-2.8434,-2.8451,-2.8478,-2.8512,-2.85,-2.8513,-2.851,-2.8532,-2.8578,-2.8515,-2.8516,-2.8528,-2.8634,-2.8646,-2.8655,-2.8572,-2.8573,-2.8574,-2.8633,0,-2.8329,-2.8385,-2.8385,-2.8437,-2.8463,-2.8452,-2.8479,-2.8495,-2.85,-2.8522,-2.8527,-2.8552,-2.8533,-2.8541,-2.8562,-2.8568,-2.86,-2.8564,-2.8596,-2.8598,-2.8594,-2.8665,-2.8677,-2.8732,-2.8641,-2.8642,-2.8643,0,-2.8401,-2.8422,-2.8477,-2.8495,-2.8506,-2.8531,-2.8554,-2.8576,-2.8592,-2.8595,-2.861,-2.8604,-2.8635,-2.861,-2.8653,-2.8628,-2.8641,-2.8646,-2.8648,-2.8652,-2.8624,-2.8672,-2.8749,-2.8758,-2.8655,-2.8654,-2.8653,0,-2.8447,-2.8489,-2.8528,-2.8538,-2.8559,-2.8577,-2.8587,-2.8602,-2.8618,-2.8637,-2.8648,-2.867,-2.8683,-2.8701,-2.8701,-2.8682,-2.8745,-2.8719,-2.8748,-2.8748,-2.8763,-2.8762,-2.8844,-2.8769,-2.8768,-2.8768,-2.8768,0,-2.8509,-2.8544,-2.8549,-2.8573,-2.8611,-2.861,-2.8648,-2.8655,-2.8669,-2.8694,-2.8685,-2.8708,-2.8706,-2.8729,-2.873,-2.8766,-2.8771,-2.8774,-2.8774,-2.8776,-2.8776,-2.8785,-2.8782,-2.877,-2.877,-2.877,-2.8769,0,-2.8568,-2.8573,-2.8615,-2.8632,-2.8637,-2.8664,-2.8678,-2.8701,-2.8705,-2.8736,-2.8744,-2.875,-2.8777,-2.8779,-2.8809,-2.881,-2.8854,-2.8849,-2.8849,-2.8849,-2.8878,-2.8876,-2.8971,-2.8984,-2.8898,-2.8899,-2.89,0,-2.8608,-2.8635,-2.8655,-2.8672,-2.8683,-2.8709,-2.8726,-2.8725,-2.8742,-2.8764,-2.8784,-2.881,-2.8832,-2.8875,-2.8882,-2.8905,-2.8902,-2.8933,-2.8905,-2.8907,-2.8904,-2.8903,-2.8906,-2.8939,-2.894,-2.8941,-2.8941,0,-2.868,-2.8681,-2.8706,-2.8732,-2.8752,-2.8771,-2.879,-2.8803,-2.8805,-2.8825,-2.8853,-2.887,-2.8902,-2.8928,-2.8952,-2.896,-2.8952,-2.895,-2.8958,-2.8961,-2.8961,-2.8963,-2.8866,-2.8948,-2.8948,-2.8947,-2.8947,-2.8946,-2.8732,-2.8755,-2.8774,-2.8801,-2.8815,-2.8833,-2.8856,-2.8863,-2.8887,-2.8915,-2.8912,-2.8944,-2.896,-2.8991,-2.9001,-2.9025,-2.9014,-2.9026,-2.9029,-2.9032,-2.9036,-2.8956,-2.9029,-2.9029,-2.9029,-2.9028,-2.9028,0,-2.8804,-2.8816,-2.8841,-2.8868,-2.889,-2.8881,-2.8901,-2.8919,-2.8948,-2.8964,-2.8986,-2.9018,-2.9044,-2.9053,-2.9078,-2.9096,-2.9092,-2.9102,-2.9102,-2.9104,-2.9044,-2.9035,-2.9105,-2.9105,-2.9105,-2.9105,-2.9105,-2.9105,-2.8844,-2.8884,-2.8888,-2.8935,-2.8945,-2.8978,-2.899,-2.9006,-2.9019,-2.9057,-2.9079,-2.9085,-2.9099,-2.9124,-2.9148,-2.9149,-2.916,-2.9172,-2.9172,-2.9116,-2.9108,-2.9101,-2.9093,-2.9174,-2.9174,-2.9231,-2.9231,-2.9232]}]]